Weather History for KDRA - July, 2013

Change the Weather History Date:

Tuesday, July 2, 2013

  Actual Average Record
Temperature  
Mean Temperature 94 °F -  
Max Temperature 109 °F 97 °F 111 °F (2001)
Min Temperature 79 °F 66 °F 62 °F (1998)
Cooling Degree Days 29    
Growing Degree Days 44 (Base 50)    
Moisture  
Dew Point 38 °F    
Average Humidity 12    
Maximum Humidity 24    
Minimum Humidity 4    
Precipitation  
Precipitation 0.00 in - - ()
Sea Level Pressure  
Sea Level Pressure 29.75 in    
Wind  
Wind Speed 8 mph (WNW)    
Max Wind Speed 16 mph    
Max Gust Speed 25 mph    
Visibility 10 miles    
Events      
Averages and records for this station are not official NWS values.
T = Trace of Precipitation, MM = Missing Value Source: NWS Daily Summary

Daily Weather History Graph

Daily Weather History Graph

Search for Another Location

Airport or City:

Trip Planner

Search our weather history database for the weather conditions in past years. The results will help you decide how hot, cold, wet, or windy it might be!

Date:

Astronomy

Jul. 02, 2013 Rise Set
Actual Time 5:29 AM PDT 8:06 PM PDT
Civil Twilight 4:59 AM PDT 8:36 PM PDT
Nautical Twilight 4:21 AM PDT 9:14 PM PDT
Astronomical Twilight 3:39 AM PDT 9:56 PM PDT
Moon 1:30 AM PDT (7/2) 3:28 PM PDT (7/2)
Length of Visible Light 15h 37m
Length of Day
14h 36m
Waning Crescent, 25% of the Moon is Illuminated
Jul 2
Waning Crescent
Jul 8
New
Jul 15
First Quarter
Jul 22
Full
Jul 29
Last Quarter

Hourly Weather History & Observations

Time (PDT) Temp. Dew Point Humidity Pressure Visibility Wind Dir Wind Speed Gust Speed Precip Events Conditions
12:52 AM 88.0 °F 41.0 °F 19% 29.77 in 10.0 mi ESE 8.1 mph - N/A   Clear
1:52 AM 86.0 °F 39.9 °F 20% 29.77 in 10.0 mi Variable 3.5 mph - N/A   Clear
2:52 AM 84.9 °F 39.9 °F 20% 29.77 in 10.0 mi Calm Calm - N/A   Clear
3:52 AM 88.0 °F 42.1 °F 20% 29.78 in 10.0 mi NE 11.5 mph - N/A   Clear
4:52 AM 84.0 °F 42.1 °F 23% 29.79 in 10.0 mi NNW 10.4 mph - N/A   Clear
5:52 AM 81.0 °F 41.0 °F 24% 29.81 in 10.0 mi East 4.6 mph - N/A   Clear
7:52 AM 97.0 °F 41.0 °F 14% 29.81 in 10.0 mi Calm Calm - N/A   Clear
8:52 AM 99.0 °F 39.9 °F 13% 29.81 in 10.0 mi North 6.9 mph - N/A   Clear
9:52 AM 100.9 °F 37.9 °F 11% 29.81 in 10.0 mi West 6.9 mph - N/A   Clear
10:52 AM 102.9 °F 39.0 °F 11% 29.81 in 10.0 mi SSW 6.9 mph - N/A   Clear
11:52 AM 106.0 °F 37.0 °F 9% 29.80 in 10.0 mi SW 16.1 mph - N/A   Clear
12:52 PM 107.1 °F 37.0 °F 9% 29.78 in 10.0 mi WSW 8.1 mph 18.4 mph N/A   Clear
1:52 PM 109.0 °F 37.9 °F 9% 29.76 in 10.0 mi WSW 16.1 mph 25.3 mph N/A   Clear
2:52 PM 109.0 °F 37.0 °F 9% 29.73 in 10.0 mi West 11.5 mph 20.7 mph N/A   Clear
3:52 PM 109.9 °F 36.0 °F 8% 29.71 in 10.0 mi SSW 13.8 mph 25.3 mph N/A   Clear
4:52 PM 107.1 °F 35.1 °F 8% 29.70 in 10.0 mi WSW 15.0 mph - N/A   Clear
5:52 PM 107.1 °F 35.1 °F 8% 29.68 in 10.0 mi WNW 13.8 mph 23.0 mph N/A   Clear
6:52 PM 105.1 °F 35.1 °F 9% 29.68 in 10.0 mi West 11.5 mph - N/A   Clear
7:52 PM 102.0 °F 36.0 °F 10% 29.68 in 10.0 mi West 9.2 mph - N/A   Clear
8:52 PM 97.0 °F 36.0 °F 12% 29.70 in 10.0 mi NNE 5.8 mph - N/A   Clear
9:52 PM 95.0 °F 36.0 °F 13% 29.72 in 10.0 mi NNW 6.9 mph - N/A   Clear
10:52 PM 95.0 °F 37.0 °F 13% 29.73 in 10.0 mi North 4.6 mph - N/A   Clear
11:52 PM 91.9 °F 37.0 °F 15% 29.73 in 10.0 mi East 3.5 mph - N/A   Clear